PST,Max TemperatureF,Mean TemperatureF,Min TemperatureF,Max Dew PointF,MeanDew PointF,Min DewpointF,Max Humidity, Mean Humidity, Min Humidity, Max Sea Level PressureIn, Mean Sea Level PressureIn, Min Sea Level PressureIn, Max VisibilityMiles, Mean VisibilityMiles, Min VisibilityMiles, Max Wind SpeedMPH, Mean Wind SpeedMPH, Max Gust SpeedMPH,PrecipitationIn, CloudCover, Events, WindDirDegrees
2011-11-1,26,22,19,25,21,13,100,93,68,30.56,30.27,30.13,10,5,0,9,6,21,0.00,6,Fog-Snow,316
2011-11-2,36,26,19,16,11,5,88,56,31,30.53,30.27,29.81,10,10,10,13,7,25,0.00,0,,177
2011-11-3,37,30,24,25,12,5,100,52,30,29.80,29.65,29.54,10,9,2,13,6,24,0.00,5,,304
2011-11-4,27,25,23,27,23,16,100,92,63,29.74,29.61,29.51,10,2,0,9,5,20,0.14,8,Fog-Snow,338
2011-11-5,25,21,17,21,19,13,93,84,77,29.86,29.69,29.60,10,2,0,7,4,,0.00,7,Fog-Snow,293
2011-11-6,25,20,16,19,16,10,93,85,74,30.12,29.94,29.79,10,10,10,6,3,,0.00,4,,271
2011-11-7,25,21,17,22,20,16,100,92,86,30.22,30.09,30.00,10,4,0,10,5,24,0.00,8,Fog-Rain-Snow,229
2011-11-8,28,26,24,27,24,21,93,90,80,30.43,30.21,30.07,10,2,0,9,5,,0.04,6,Fog-Snow,218
2011-11-9,32,28,23,26,22,17,96,81,59,30.50,30.41,30.15,10,10,10,12,8,24,0.00,2,,179
2011-11-10,36,32,28,18,17,15,63,53,46,30.23,30.00,29.83,10,10,10,9,7,18,0.00,0,,221
2011-11-11,37,30,24,27,20,14,100,70,41,29.80,29.45,29.22,10,5,0,14,8,36,0.61,5,Fog-Snow,221
2011-11-12,26,22,17,23,19,17,100,92,80,29.70,29.49,29.24,9,2,0,14,8,33,0.33,8,Fog-Rain-Snow,242
2011-11-13,28,26,24,25,22,21,93,86,80,29.63,29.49,29.36,10,2,0,20,9,46,0.42,8,Fog-Rain-Snow,281
2011-11-14,26,20,12,25,20,10,100,88,74,29.96,29.56,29.45,10,4,0,20,12,41,0.29,8,Fog-Rain-Snow,291
2011-11-15,16,13,10,16,11,1,100,88,59,30.35,30.01,29.83,10,5,0,15,6,34,0.13,6,Fog-Snow,313
2011-11-16,24,17,10,23,13,2,100,84,62,30.37,30.08,29.70,10,6,0,16,8,28,0.12,5,Fog-Snow,175
2011-11-17,30,24,19,29,20,16,100,91,78,29.75,29.60,29.48,10,3,0,21,11,45,0.57,8,Fog-Rain-Snow,246
2011-11-18,27,20,12,22,16,7,93,85,74,29.66,29.45,29.38,10,2,0,7,3,,0.46,8,Fog-Snow,159
2011-11-19,18,13,8,14,8,3,86,82,77,29.92,29.65,29.50,10,3,0,9,5,,0.10,8,Fog-Snow,176
2011-11-20,23,19,15,19,16,10,93,85,79,29.94,29.79,29.69,10,5,1,7,4,,0.05,8,Snow,196
2011-11-21,28,24,21,27,23,18,93,90,85,29.94,29.81,29.74,10,2,0,14,7,33,0.36,8,Fog-Snow,191
2011-11-22,33,30,28,32,29,26,100,91,87,29.84,29.75,29.63,4,1,0,20,14,46,1.45,8,Fog-Snow,180
2011-11-23,35,32,30,32,30,27,100,95,72,29.77,29.65,29.54,10,2,0,18,13,40,0.38,8,Fog-Snow,192
2011-11-24,30,26,23,30,26,22,100,96,92,29.82,29.70,29.55,10,2,0,14,6,33,0.37,8,Fog-Snow,222
2011-11-25,28,22,15,27,19,13,100,91,84,30.61,29.88,29.58,10,4,0,23,14,46,0.28,8,Fog-Rain-Snow,265
2011-11-26,28,20,14,22,17,12,96,84,68,30.62,30.49,30.36,10,9,2,13,9,22,0.00,6,Snow,178
2011-11-27,35,30,26,30,25,21,100,85,64,30.39,30.10,29.92,10,6,0,20,9,47,0.19,5,Fog-Snow,235
2011-11-28,27,26,24,27,25,22,100,95,88,30.43,30.28,30.10,10,8,1,9,6,25,0.01,7,Snow,247
2011-11-29,30,28,26,30,28,24,100,97,85,30.38,30.11,29.90,10,6,0,13,7,25,0.19,7,Fog-Snow,226
2011-11-30,27,23,19,25,22,16,100,91,84,30.69,30.23,29.96,10,2,0,10,6,25,0.06,6,Fog-Rain-Snow,349